Miscellaneous Local Product
Issued by NWS Hastings, NE

Home | Current Version | Previous Version | Graphics & Text | Print | Product List | Glossary On
Versions: 1 2 3 4 5 6 7 8 9 10 11 12 13 14 15 16 17 18 19 20 21 22 23 24 25 26 27 28 29 30 31 32 33 34 35 36 37 38 39 40 41 42 43 44 45 46 47 48 49 50
000
AXUS43 KGID 011802
MISGRI

GID CWA HOURLY WEATHER ROUNDUP
NATIONAL WEATHER SERVICE HASTINGS NE
100 PM CDT SAT AUG 01 2015

NOTE: "FAIR" INDICATES FEW OR NO CLOUDS BELOW 12,000 FEET WITH NO
SIGNIFICANT WEATHER AND/OR OBSTRUCTIONS TO VISIBILITY.

...SOUTH CENTRAL NEBRASKA...

CITY           SKY/WX    TMP DP  RH WIND       PRES   REMARKS
GRAND ISLAND   PTSUNNY   85  61  44 S6        30.07S
HASTINGS       MOSUNNY   81  61  50 S9        30.07F
KEARNEY        SUNNY     84  63  48 SE12      30.09S
ORD            CLOUDY    72  59  63 NW14G21   30.14R
YORK           CLOUDY    77  66  69 NE6       30.04S
AURORA         MOSUNNY   82  66  57 W3        30.06R
LEXINGTON      SUNNY     83  60  44 E13       30.12S
HOLDREGE       SUNNY     81  58  44 E12       30.10F
HEBRON         MOSUNNY   85  59  42 SE5       30.06F

...NEBRASKA PANHANDLE...

CITY           SKY/WX    TMP DP  RH WIND       PRES   REMARKS
CHADRON        SUNNY     88  55  32 N7        30.02F
ALLIANCE       SUNNY     89  56  32 SW5       30.06F
SCOTTSBLUFF    SUNNY     88  57  34 VRB5      30.06F
SIDNEY         SUNNY     90  56  31 SW15G22   30.10F

...WESTERN AND NORTH CENTRAL NEBRASKA...

CITY           SKY/WX    TMP DP  RH WIND       PRES   REMARKS
VALENTINE      CLOUDY    64  57  78 S28G36    30.05F
AINSWORTH      LGT RAIN  62  61  96 S12       30.17S
ONEILL         RAIN      65  62  91 SW14      30.12F
BROKEN BOW     MOSUNNY   81  55  40 NE22      30.16R
IMPERIAL       SUNNY     87  63  44 SE25G31   30.09F
NORTH PLATTE   SUNNY     81  60  48 E20       30.12S
MCCOOK         SUNNY     85  62  46 SE10      30.09F

...EASTERN NEBRASKA...

CITY           SKY/WX    TMP DP  RH WIND       PRES   REMARKS
NORFOLK        CLOUDY    74  61  63 W13       30.06S
SO SIOUX CITY  PTSUNNY   81  66  60 W9        30.01S
TEKAMAH        PTSUNNY   81  69  67 CALM      30.00F
COLUMBUS       CLOUDY    73  63  68 NW8       30.04R
ALBION         CLOUDY    71  60  68 W8        30.11R
OMAHA EPPLEY   CLOUDY    81  66  60 VRB3      30.00F
OFFUTT AFB     CLOUDY    80  66  62 VRB2      30.00F
MILLARD        CLOUDY    80  66  62 N5        30.00F
LINCOLN        CLOUDY    79  63  57 S9        30.02F
NEBRASKA CITY  PTSUNNY   78  65  65 CALM      30.03S
BEATRICE       CLOUDY    78  64  62 S7        30.05F
FALLS CITY     MOSUNNY   82  70  66 CALM      30.03F

...NORTHERN KANSAS...

CITY           SKY/WX    TMP DP  RH WIND       PRES   REMARKS
GOODLAND       SUNNY     88  55  32 S17G25    30.11F
HILL CITY      SUNNY     89  68  49 E9G17     30.08F HX  93
NORTON         CLEAR     84  61  45 E12       30.08F
PHILLIPSBURG   SUNNY     88  66  48 SE5       30.08F HX  90
SMITH CENTER   SUNNY     84  63  48 SE5       30.08S
HAYS           MOSUNNY   88  64  45 S6        30.07F
RUSSELL        MOSUNNY   88  66  48 S7        30.05F HX  90
CONCORDIA      MOSUNNY   87  70  56 E6        30.05F HX  92
SALINA         MOSUNNY   90  70  51 VRB3      30.05F HX  95
TOPEKA         SUNNY     89  70  53 SW8       30.04F HX  94



USA.gov is the U.S. government's official web portal to all federal, state and local government web resources and services.